Location: Cargill Incorporated Elevator
(42.7294°N, 93.7333°W)
Time: 17:02:41
(UTC+00:00)

Cosmos 2278 Rocket - Pass Details

Date: 19 January 2026
Orbit: 839 x 846 km, 71.0° (Epoch: 17 February)

Event Time Altitude Azimuth Distance (km) Brightness Sun altitude
Exits shadow 12:31:20 16° 273° (W) 2,043 3.6 -12.6°
Maximum altitude 12:34:00 22° 309° (NW) 1,744 3.3 -12.1°
Drops below altitude 10° 12:38:23 10° 0° (N) 2,468 4.5 -11.4°
Sets 12:41:24 0° 16° (NNE) 3,408 5.3 -10.8°
